sat.trackr.live / text

‹ back to catalog

STARLINK-30516

NORAD 57984 · 2023-151W

PAYLOAD ACTIVE UNKNOWN

§ Identity

Operator
Country
US
Launch date
2023-09-30
Launch site
AFETR
Launch vehicle
Mass (kg)
RCS (m²)

Purposes: comms

External: N2YO · Heavens-Above · Gunter

§ Orbital elements

Epoch: 2026-05-24T20:45:30.769344Z

Period
94.27 min
Inclination
43.0003°
Eccentricity
0.0001563
Mean motion
15.27579662 rev/d
Perigee alt
482.0 km
Apogee alt
484.1 km
Semi-major
6,861.2 km
B*
5.8078e-5
RAAN
283.8712°
Arg perigee
258.8878°
Mean anomaly
101.1798°
Rev number
14,720

§ Raw data

STARLINK-305161 57984U 23151W   26144.86493946  .00001336  00000+0  58078-4 0  99952 57984  43.0003 283.8712 0001563 258.8878 101.1798 15.27579662147208

JSON: /api/v1/satellites/57984 · /tle

For live sub-satellite position, see the globe view (requires WebGL).

§ Visibility from observer

Set your observer location to see the next 7 days of passes ≥ 10°. The values pass through the URL so the page stays shareable.

No JS? Fill the form by hand. The geolocation button needs JavaScript.